Location: Rounton
(54.4000°N, 1.3500°W)
Time: 15:04:41
(UTC+00:00)

Transit 4A - Pass Details

Date: 02 December 2021
Orbit: 864 x 981 km, 66.8° (Epoch: 20 January)

Event Time Altitude Azimuth Distance (km) Brightness Sun altitude
Rises 19:48:22 0° 201° (SSW) 3,459 11.0 -34.2°
Enters shadow 19:50:04 - 198° (SSW) 2,826 10.5 -34.4°
Reaches altitude 10° 19:50:52 10° 196° (SSW) 2,536 - -34.5°
Maximum altitude 19:56:33 53° 121° (ESE) 1,091 - -35.3°
Drops below altitude 10° 20:02:26 10° 46° (NE) 2,624 - -36.2°
Sets 20:05:03 0° 42° (NE) 3,589 - -36.5°
